Time,TemperatureF,DewpointF,PressureIn,WindDirection,WindDirectionDegrees,WindSpeedMPH,WindSpeedGustMPH,Humidity,HourlyPrecipIn,Conditions,Clouds,dailyrainin,SoftwareType,DateUTC
2013-10-04 00:30:00,64.0,62.8,30.07,South,184,0.0,0.0,96,0.00,,---,0.00,VWS V14.01,2013-10-04 04:30:00,
2013-10-04 00:32:00,64.0,62.8,30.07,South,184,0.0,0.0,96,0.00,,---,0.00,VWS V14.01,2013-10-04 04:32:00,
2013-10-04 00:35:00,63.9,62.4,30.07,South,184,0.0,0.0,95,0.00,,---,0.00,VWS V14.01,2013-10-04 04:35:00,
2013-10-04 00:40:00,63.8,62.3,30.07,South,184,0.0,0.0,95,0.00,,---,0.00,VWS V14.01,2013-10-04 04:40:00,
2013-10-04 00:43:00,63.7,62.2,30.07,South,184,0.0,0.0,95,0.00,,---,0.00,VWS V14.01,2013-10-04 04:43:00,
2013-10-04 00:45:00,63.7,62.2,30.07,South,184,0.0,0.0,95,0.00,,---,0.00,VWS V14.01,2013-10-04 04:45:00,
2013-10-04 00:47:00,63.6,62.2,30.07,South,184,0.0,0.0,95,0.00,,---,0.00,VWS V14.01,2013-10-04 04:47:00,
2013-10-04 00:50:00,63.5,62.0,30.07,South,184,0.0,0.0,95,0.00,,---,0.00,VWS V14.01,2013-10-04 04:50:00,
2013-10-04 00:55:00,63.4,62.0,30.07,South,184,0.0,0.0,95,0.00,,---,0.00,VWS V14.01,2013-10-04 04:55:00,
2013-10-04 00:56:00,63.4,62.0,30.07,South,184,0.0,0.0,95,0.00,,---,0.00,VWS V14.01,2013-10-04 04:56:00,
2013-10-04 01:00:00,63.3,61.8,30.07,South,184,0.0,0.0,95,0.00,,---,0.00,VWS V14.01,2013-10-04 05:00:00,
2013-10-04 01:05:00,63.2,61.8,30.07,South,184,0.0,0.0,95,0.00,,---,0.00,VWS V14.01,2013-10-04 05:05:00,
2013-10-04 01:06:00,63.2,61.8,30.07,South,184,0.0,0.0,95,0.00,,---,0.00,VWS V14.01,2013-10-04 05:06:00,
2013-10-04 01:11:00,63.1,61.9,30.07,South,184,0.0,0.0,96,0.00,,---,0.00,VWS V14.01,2013-10-04 05:11:00,
2013-10-04 01:14:00,63.0,61.8,30.07,South,184,0.0,0.0,96,0.00,,---,0.00,VWS V14.01,2013-10-04 05:14:00,
2013-10-04 01:16:00,62.9,61.8,30.07,South,184,0.0,0.0,96,0.00,,---,0.00,VWS V14.01,2013-10-04 05:16:00,
2013-10-04 01:17:00,62.9,61.8,30.08,South,184,0.0,0.0,96,0.00,,---,0.00,VWS V14.01,2013-10-04 05:17:00,
2013-10-04 01:18:00,62.9,61.8,30.07,South,185,0.0,0.0,96,0.00,,---,0.00,VWS V14.01,2013-10-04 05:18:00,
2013-10-04 01:24:00,62.9,61.8,30.07,South,185,0.0,0.0,96,0.00,,---,0.00,VWS V14.01,2013-10-04 05:24:00,
2013-10-04 01:27:00,62.9,61.8,30.07,South,184,0.0,0.0,96,0.00,,---,0.00,VWS V14.01,2013-10-04 05:27:00,
2013-10-04 01:30:00,62.9,61.8,30.08,South,185,0.0,0.0,96,0.00,,---,0.00,VWS V14.01,2013-10-04 05:30:00,
2013-10-04 01:32:00,62.9,61.8,30.08,South,184,0.0,0.0,96,0.00,,---,0.00,VWS V14.01,2013-10-04 05:32:00,
2013-10-04 01:37:00,62.9,61.8,30.07,South,184,0.0,0.0,96,0.00,,---,0.00,VWS V14.01,2013-10-04 05:37:00,
2013-10-04 01:42:00,63.0,61.8,30.07,South,184,0.0,0.0,96,0.00,,---,0.00,VWS V14.01,2013-10-04 05:42:00,
2013-10-04 01:47:00,63.1,61.9,30.08,South,184,0.0,0.0,96,0.00,,---,0.00,VWS V14.01,2013-10-04 05:47:00,
2013-10-04 01:52:00,63.1,61.9,30.08,South,184,0.0,0.0,96,0.00,,---,0.00,VWS V14.01,2013-10-04 05:52:00,
2013-10-04 01:57:00,63.2,62.0,30.08,South,185,0.0,0.0,96,0.00,,---,0.00,VWS V14.01,2013-10-04 05:57:00,
2013-10-04 02:00:00,63.1,61.9,30.08,South,184,0.0,0.0,96,0.00,,---,0.00,VWS V14.01,2013-10-04 06:00:00,
2013-10-04 02:02:00,63.2,62.0,30.08,South,184,0.0,0.0,96,0.00,,---,0.00,VWS V14.01,2013-10-04 06:02:00,
2013-10-04 02:07:00,63.3,62.1,30.08,South,184,0.0,0.0,96,0.00,,---,0.00,VWS V14.01,2013-10-04 06:07:00,
2013-10-04 02:12:00,63.3,62.1,30.07,South,184,0.0,0.0,96,0.00,,---,0.00,VWS V14.01,2013-10-04 06:12:00,
2013-10-04 02:17:00,63.4,62.2,30.08,South,184,0.0,0.0,96,0.00,,---,0.00,VWS V14.01,2013-10-04 06:17:00,
2013-10-04 02:22:00,63.3,62.1,30.07,South,180,0.0,0.0,96,0.00,,---,0.00,VWS V14.01,2013-10-04 06:22:00,
2013-10-04 02:27:00,63.4,62.2,30.07,South,182,0.0,0.0,96,0.00,,---,0.00,VWS V14.01,2013-10-04 06:27:00,
2013-10-04 02:32:00,63.5,62.0,30.07,South,176,0.0,0.0,95,0.00,,---,0.00,VWS V14.01,2013-10-04 06:32:00,
2013-10-04 02:37:00,63.6,62.2,30.07,East,96,0.0,0.0,95,0.00,,---,0.00,VWS V14.01,2013-10-04 06:37:00,
2013-10-04 02:42:00,63.6,62.2,30.07,East,96,0.0,0.0,95,0.00,,---,0.00,VWS V14.01,2013-10-04 06:42:00,
2013-10-04 02:47:00,63.7,62.2,30.07,East,96,0.0,0.0,95,0.00,,---,0.00,VWS V14.01,2013-10-04 06:47:00,
2013-10-04 02:52:00,63.7,62.2,30.07,East,96,0.0,0.0,95,0.00,,---,0.00,VWS V14.01,2013-10-04 06:52:00,
2013-10-04 02:57:00,63.7,62.2,30.07,East,96,0.0,0.0,95,0.00,,---,0.00,VWS V14.01,2013-10-04 06:57:00,
2013-10-04 03:02:00,63.8,62.3,30.07,East,98,0.0,1.0,95,0.00,,---,0.00,VWS V14.01,2013-10-04 07:02:00,
2013-10-04 03:07:00,63.9,62.4,30.07,East,98,0.0,1.0,95,0.00,,---,0.00,VWS V14.01,2013-10-04 07:07:00,
2013-10-04 03:12:00,63.9,62.4,30.07,East,98,0.0,1.0,95,0.00,,---,0.00,VWS V14.01,2013-10-04 07:12:00,
2013-10-04 03:17:00,63.9,62.4,30.07,East,98,0.0,1.0,95,0.00,,---,0.00,VWS V14.01,2013-10-04 07:17:00,
2013-10-04 03:22:00,63.7,62.2,30.07,East,98,0.0,1.0,95,0.00,,---,0.00,VWS V14.01,2013-10-04 07:22:00,
2013-10-04 03:27:00,63.6,61.8,30.07,East,98,0.0,0.0,94,0.00,,---,0.00,VWS V14.01,2013-10-04 07:27:00,
2013-10-04 03:32:00,63.4,61.7,30.07,East,98,0.0,0.0,94,0.00,,---,0.00,VWS V14.01,2013-10-04 07:32:00,
2013-10-04 03:37:00,63.2,61.8,30.07,East,98,0.0,0.0,95,0.00,,---,0.00,VWS V14.01,2013-10-04 07:37:00,
2013-10-04 03:42:00,63.1,61.7,30.07,East,98,0.0,0.0,95,0.00,,---,0.00,VWS V14.01,2013-10-04 07:42:00,
2013-10-04 03:47:00,63.0,61.5,30.07,East,98,0.0,0.0,95,0.00,,---,0.00,VWS V14.01,2013-10-04 07:47:00,
2013-10-04 03:52:00,62.8,61.3,30.07,East,98,0.0,0.0,95,0.00,,---,0.00,VWS V14.01,2013-10-04 07:52:00,
2013-10-04 03:57:00,62.6,61.2,30.07,East,98,0.0,0.0,95,0.00,,---,0.00,VWS V14.01,2013-10-04 07:57:00,
2013-10-04 04:02:00,62.5,61.0,30.07,East,98,0.0,0.0,95,0.00,,---,0.00,VWS V14.01,2013-10-04 08:02:00,
2013-10-04 04:07:00,62.4,61.0,30.07,East,98,0.0,0.0,95,0.00,,---,0.00,VWS V14.01,2013-10-04 08:07:00,
2013-10-04 04:12:00,62.2,60.8,30.07,East,98,0.0,0.0,95,0.00,,---,0.00,VWS V14.01,2013-10-04 08:12:00,
2013-10-04 04:17:00,62.1,60.7,30.07,East,98,0.0,0.0,95,0.00,,---,0.00,VWS V14.01,2013-10-04 08:17:00,
2013-10-04 04:22:00,62.0,60.6,30.07,East,98,0.0,0.0,95,0.00,,---,0.00,VWS V14.01,2013-10-04 08:22:00,
2013-10-04 04:27:00,61.9,60.8,30.07,East,98,0.0,0.0,96,0.00,,---,0.00,VWS V14.01,2013-10-04 08:27:00,
2013-10-04 04:32:00,61.8,60.7,30.07,East,98,0.0,0.0,96,0.00,,---,0.00,VWS V14.01,2013-10-04 08:32:00,
2013-10-04 04:37:00,61.7,60.5,30.07,East,98,0.0,0.0,96,0.00,,---,0.00,VWS V14.01,2013-10-04 08:37:00,
2013-10-04 04:42:00,61.6,60.5,30.07,East,98,0.0,0.0,96,0.00,,---,0.00,VWS V14.01,2013-10-04 08:42:00,
2013-10-04 04:47:00,61.4,60.2,30.07,East,98,0.0,0.0,96,0.00,,---,0.00,VWS V14.01,2013-10-04 08:47:00,
2013-10-04 04:52:00,61.4,60.2,30.07,East,98,0.0,0.0,96,0.00,,---,0.00,VWS V14.01,2013-10-04 08:52:00,
2013-10-04 04:57:00,61.3,60.2,30.07,East,98,0.0,0.0,96,0.00,,---,0.00,VWS V14.01,2013-10-04 08:57:00,
2013-10-04 05:02:00,61.1,60.0,30.07,East,98,0.0,0.0,96,0.00,,---,0.00,VWS V14.01,2013-10-04 09:02:00,
2013-10-04 05:07:00,61.0,59.9,30.07,East,98,0.0,0.0,96,0.00,,---,0.00,VWS V14.01,2013-10-04 09:07:00,
2013-10-04 05:12:00,60.9,59.8,30.07,East,98,0.0,0.0,96,0.00,,---,0.00,VWS V14.01,2013-10-04 09:12:00,
2013-10-04 05:17:00,60.8,59.7,30.07,East,98,0.0,0.0,96,0.00,,---,0.00,VWS V14.01,2013-10-04 09:17:00,
2013-10-04 05:22:00,60.7,59.6,30.08,East,98,0.0,0.0,96,0.00,,---,0.00,VWS V14.01,2013-10-04 09:22:00,
2013-10-04 05:27:00,60.8,59.7,30.08,East,98,0.0,0.0,96,0.00,,---,0.00,VWS V14.01,2013-10-04 09:27:00,
2013-10-04 05:32:00,60.8,59.7,30.08,East,98,0.0,0.0,96,0.00,,---,0.00,VWS V14.01,2013-10-04 09:32:00,
2013-10-04 05:37:00,60.9,59.8,30.08,East,98,0.0,0.0,96,0.00,,---,0.00,VWS V14.01,2013-10-04 09:37:00,
2013-10-04 05:42:00,61.0,59.9,30.08,East,98,0.0,0.0,96,0.00,,---,0.00,VWS V14.01,2013-10-04 09:42:00,
2013-10-04 05:47:00,60.9,59.8,30.08,East,98,0.0,0.0,96,0.00,,---,0.00,VWS V14.01,2013-10-04 09:47:00,
2013-10-04 05:52:00,60.8,59.7,30.08,East,98,0.0,0.0,96,0.00,,---,0.00,VWS V14.01,2013-10-04 09:52:00,
2013-10-04 05:57:00,60.7,59.6,30.08,East,98,0.0,0.0,96,0.00,,---,0.00,VWS V14.01,2013-10-04 09:57:00,
2013-10-04 06:02:00,60.6,59.5,30.08,East,98,0.0,0.0,96,0.00,,---,0.00,VWS V14.01,2013-10-04 10:02:00,
2013-10-04 06:07:00,60.5,59.4,30.08,East,98,0.0,0.0,96,0.00,,---,0.00,VWS V14.01,2013-10-04 10:07:00,
2013-10-04 06:12:00,60.4,59.3,30.08,East,98,0.0,0.0,96,0.00,,---,0.00,VWS V14.01,2013-10-04 10:12:00,
2013-10-04 06:17:00,60.3,59.2,30.08,East,98,0.0,0.0,96,0.00,,---,0.00,VWS V14.01,2013-10-04 10:17:00,
2013-10-04 06:23:00,60.1,59.0,30.08,East,98,0.0,0.0,96,0.00,,---,0.00,VWS V14.01,2013-10-04 10:23:00,
2013-10-04 06:28:00,60.1,59.0,30.08,East,98,0.0,0.0,96,0.00,,---,0.00,VWS V14.01,2013-10-04 10:28:00,
2013-10-04 06:33:00,60.0,58.9,30.08,East,98,0.0,0.0,96,0.00,,---,0.00,VWS V14.01,2013-10-04 10:33:00,
2013-10-04 06:38:00,59.8,58.7,30.08,East,98,0.0,0.0,96,0.00,,---,0.00,VWS V14.01,2013-10-04 10:38:00,
2013-10-04 06:43:00,59.8,58.7,30.08,East,98,0.0,0.0,96,0.00,,---,0.00,VWS V14.01,2013-10-04 10:43:00,
2013-10-04 06:48:00,59.7,58.6,30.08,East,98,0.0,0.0,96,0.00,,---,0.00,VWS V14.01,2013-10-04 10:48:00,
2013-10-04 06:53:00,59.7,58.6,30.08,East,98,0.0,0.0,96,0.00,,---,0.00,VWS V14.01,2013-10-04 10:53:00,
2013-10-04 06:58:00,59.6,58.5,30.08,East,98,0.0,0.0,96,0.00,,---,0.00,VWS V14.01,2013-10-04 10:58:00,
2013-10-04 07:03:00,59.5,58.4,30.08,East,98,0.0,0.0,96,0.00,,---,0.00,VWS V14.01,2013-10-04 11:03:00,
2013-10-04 07:08:00,59.3,58.2,30.08,East,98,0.0,0.0,96,0.00,,---,0.00,VWS V14.01,2013-10-04 11:08:00,
2013-10-04 07:13:00,59.3,58.2,30.09,East,98,0.0,0.0,96,0.00,,---,0.00,VWS V14.01,2013-10-04 11:13:00,
2013-10-04 07:18:00,59.2,58.1,30.09,East,98,0.0,0.0,96,0.00,,---,0.00,VWS V14.01,2013-10-04 11:18:00,
2013-10-04 07:23:00,59.2,58.1,30.09,East,98,0.0,0.0,96,0.00,,---,0.00,VWS V14.01,2013-10-04 11:23:00,
2013-10-04 07:28:00,59.1,58.0,30.09,East,98,0.0,0.0,96,0.00,,---,0.00,VWS V14.01,2013-10-04 11:28:00,
2013-10-04 07:33:00,59.0,57.9,30.09,East,98,0.0,0.0,96,0.00,,---,0.00,VWS V14.01,2013-10-04 11:33:00,
2013-10-04 07:38:00,58.8,57.7,30.09,East,98,0.0,0.0,96,0.00,,---,0.00,VWS V14.01,2013-10-04 11:38:00,
2013-10-04 07:43:00,58.9,57.8,30.09,East,98,0.0,0.0,96,0.00,,---,0.00,VWS V14.01,2013-10-04 11:43:00,
2013-10-04 07:48:00,58.9,57.8,30.09,East,98,0.0,0.0,96,0.00,,---,0.00,VWS V14.01,2013-10-04 11:48:00,
2013-10-04 07:54:00,58.9,57.8,30.09,East,98,0.0,0.0,96,0.00,,---,0.00,VWS V14.01,2013-10-04 11:54:00,
2013-10-04 07:59:00,58.9,57.8,30.09,East,98,0.0,0.0,96,0.00,,---,0.00,VWS V14.01,2013-10-04 11:59:00,
2013-10-04 08:03:00,58.9,57.8,30.10,East,98,0.0,0.0,96,0.00,,---,0.00,VWS V14.01,2013-10-04 12:03:00,
2013-10-04 08:08:00,59.1,58.0,30.10,East,98,0.0,0.0,96,0.00,,---,0.00,VWS V14.01,2013-10-04 12:08:00,
2013-10-04 08:14:00,59.2,58.1,30.10,East,98,0.0,0.0,96,0.00,,---,0.00,VWS V14.01,2013-10-04 12:14:00,
2013-10-04 08:19:00,59.3,58.2,30.10,East,98,0.0,0.0,96,0.00,,---,0.00,VWS V14.01,2013-10-04 12:19:00,
2013-10-04 08:24:00,59.5,58.4,30.10,East,98,0.0,0.0,96,0.00,,---,0.00,VWS V14.01,2013-10-04 12:24:00,
2013-10-04 08:29:00,59.7,58.6,30.10,East,98,0.0,0.0,96,0.00,,---,0.00,VWS V14.01,2013-10-04 12:29:00,
2013-10-04 08:34:00,60.0,58.9,30.10,East,98,0.0,0.0,96,0.00,,---,0.00,VWS V14.01,2013-10-04 12:34:00,
2013-10-04 08:39:00,60.3,59.2,30.10,East,98,0.0,0.0,96,0.00,,---,0.00,VWS V14.01,2013-10-04 12:39:00,
2013-10-04 08:44:00,60.8,59.7,30.10,East,98,0.0,0.0,96,0.00,,---,0.00,VWS V14.01,2013-10-04 12:44:00,
2013-10-04 08:49:00,61.4,60.2,30.10,East,98,0.0,0.0,96,0.00,,---,0.00,VWS V14.01,2013-10-04 12:49:00,
2013-10-04 08:54:00,61.7,60.5,30.10,East,98,0.0,0.0,96,0.00,,---,0.00,VWS V14.01,2013-10-04 12:54:00,
2013-10-04 08:59:00,62.6,61.5,30.10,East,98,0.0,0.0,96,0.00,,---,0.00,VWS V14.01,2013-10-04 12:59:00,
2013-10-04 09:04:00,63.1,61.9,30.10,East,98,0.0,0.0,96,0.00,,---,0.00,VWS V14.01,2013-10-04 13:04:00,
2013-10-04 09:09:00,63.6,62.4,30.10,ESE,111,0.0,0.0,96,0.00,,---,0.00,VWS V14.01,2013-10-04 13:09:00,
2013-10-04 09:14:00,64.2,63.0,30.10,East,88,0.0,0.0,96,0.00,,---,0.00,VWS V14.01,2013-10-04 13:14:00,
2013-10-04 09:19:00,64.9,63.7,30.10,NE,55,0.0,0.0,96,0.00,,---,0.00,VWS V14.01,2013-10-04 13:19:00,
2013-10-04 09:24:00,65.5,64.3,30.11,NE,55,0.0,0.0,96,0.00,,---,0.00,VWS V14.01,2013-10-04 13:24:00,
2013-10-04 09:29:00,65.9,64.7,30.10,NE,36,0.0,0.0,96,0.00,,---,0.00,VWS V14.01,2013-10-04 13:29:00,
2013-10-04 09:34:00,66.3,65.1,30.10,NNW,341,0.0,0.0,96,0.00,,---,0.00,VWS V14.01,2013-10-04 13:34:00,
2013-10-04 09:39:00,66.8,65.6,30.10,NNE,15,0.0,1.0,96,0.00,,---,0.00,VWS V14.01,2013-10-04 13:39:00,
2013-10-04 09:44:00,67.5,66.0,30.11,NE,38,1.0,3.0,95,0.00,,---,0.00,VWS V14.01,2013-10-04 13:44:00,
2013-10-04 09:49:00,68.5,66.4,30.11,NNW,336,0.0,3.0,93,0.00,,---,0.00,VWS V14.01,2013-10-04 13:49:00,
2013-10-04 09:54:00,69.2,66.8,30.10,NNW,337,0.0,3.0,92,0.00,,---,0.00,VWS V14.01,2013-10-04 13:54:00,
2013-10-04 09:59:00,69.6,66.9,30.10,NE,42,0.0,1.0,91,0.00,,---,0.00,VWS V14.01,2013-10-04 13:59:00,
2013-10-04 10:04:00,70.2,67.1,30.10,WNW,288,0.0,1.0,90,0.00,,---,0.00,VWS V14.01,2013-10-04 14:04:00,
2013-10-04 10:09:00,70.5,67.1,30.10,NE,47,0.0,1.0,89,0.00,,---,0.00,VWS V14.01,2013-10-04 14:09:00,
2013-10-04 10:14:00,70.8,67.1,30.10,NE,42,0.0,1.0,88,0.00,,---,0.00,VWS V14.01,2013-10-04 14:14:00,
2013-10-04 10:19:00,71.3,67.6,30.11,North,351,0.0,1.0,88,0.00,,---,0.00,VWS V14.01,2013-10-04 14:19:00,
2013-10-04 10:24:00,71.6,67.5,30.10,SSW,192,0.0,1.0,87,0.00,,---,0.00,VWS V14.01,2013-10-04 14:24:00,
2013-10-04 10:29:00,72.1,68.0,30.10,South,190,0.0,0.0,87,0.00,,---,0.00,VWS V14.01,2013-10-04 14:29:00,
2013-10-04 10:34:00,72.6,68.2,30.10,WNW,291,1.0,1.0,86,0.00,,---,0.00,VWS V14.01,2013-10-04 14:34:00,
2013-10-04 10:39:00,73.3,68.2,30.10,SW,236,2.0,2.0,84,0.00,,---,0.00,VWS V14.01,2013-10-04 14:39:00,
2013-10-04 10:44:00,74.0,68.2,30.10,West,264,1.0,2.0,82,0.00,,---,0.00,VWS V14.01,2013-10-04 14:44:00,
2013-10-04 10:49:00,74.7,68.1,30.10,South,184,1.0,2.0,80,0.00,,---,0.00,VWS V14.01,2013-10-04 14:49:00,
2013-10-04 10:54:00,75.4,68.4,30.10,WNW,289,1.0,2.0,79,0.00,,---,0.00,VWS V14.01,2013-10-04 14:54:00,
2013-10-04 10:59:00,76.1,68.4,30.10,NNW,346,0.0,1.0,77,0.00,,---,0.00,VWS V14.01,2013-10-04 14:59:00,
2013-10-04 11:04:00,76.8,68.7,30.10,SW,225,0.0,2.0,76,0.00,,---,0.00,VWS V14.01,2013-10-04 15:04:00,
2013-10-04 11:09:00,77.3,68.8,30.10,SW,224,0.0,2.0,75,0.00,,---,0.00,VWS V14.01,2013-10-04 15:09:00,
2013-10-04 11:14:00,77.8,68.1,30.10,NE,47,1.0,2.0,72,0.00,,---,0.00,VWS V14.01,2013-10-04 15:14:00,
2013-10-04 11:17:00,77.8,68.1,30.10,NE,45,1.0,2.0,72,0.00,,---,0.00,VWS V14.01,2013-10-04 15:17:00,
2013-10-04 11:22:00,77.9,66.9,30.10,NE,49,4.0,4.0,69,0.00,,---,0.00,VWS V14.01,2013-10-04 15:22:00,
2013-10-04 11:27:00,77.9,67.3,30.10,ENE,67,2.0,3.0,70,0.00,,---,0.00,VWS V14.01,2013-10-04 15:27:00,
2013-10-04 11:32:00,78.1,67.5,30.10,SW,219,1.0,3.0,70,0.00,,---,0.00,VWS V14.01,2013-10-04 15:32:00,
2013-10-04 11:37:00,78.3,67.7,30.10,SSW,211,0.0,3.0,70,0.00,,---,0.00,VWS V14.01,2013-10-04 15:37:00,
2013-10-04 11:42:00,78.5,67.5,30.10,SSE,165,0.0,4.0,69,0.00,,---,0.00,VWS V14.01,2013-10-04 15:42:00,
2013-10-04 11:47:00,78.8,67.4,30.10,East,80,1.0,4.0,68,0.00,,---,0.00,VWS V14.01,2013-10-04 15:47:00,
2013-10-04 11:52:00,79.0,67.1,30.10,SSE,164,2.0,4.0,67,0.00,,---,0.00,VWS V14.01,2013-10-04 15:52:00,
2013-10-04 11:57:00,79.2,66.9,30.09,WNW,283,4.0,4.0,66,0.00,,---,0.00,VWS V14.01,2013-10-04 15:57:00,
2013-10-04 12:02:00,79.3,66.5,30.10,SW,229,1.0,4.0,65,0.00,,---,0.00,VWS V14.01,2013-10-04 16:02:00,
2013-10-04 12:07:00,79.5,66.3,30.09,NNW,336,4.0,4.0,64,0.00,,---,0.00,VWS V14.01,2013-10-04 16:07:00,
2013-10-04 12:12:00,79.5,65.8,30.09,West,275,1.0,6.0,63,0.00,,---,0.00,VWS V14.01,2013-10-04 16:12:00,
2013-10-04 12:17:00,79.8,66.6,30.09,NE,42,4.0,6.0,64,0.00,,---,0.00,VWS V14.01,2013-10-04 16:17:00,
2013-10-04 12:22:00,80.1,66.4,30.09,South,181,0.0,6.0,63,0.00,,---,0.00,VWS V14.01,2013-10-04 16:22:00,
2013-10-04 12:27:00,80.5,66.3,30.09,West,269,1.0,1.0,62,0.00,,---,0.00,VWS V14.01,2013-10-04 16:27:00,
2013-10-04 12:32:00,80.8,65.6,30.09,WNW,283,0.0,4.0,60,0.00,,---,0.00,VWS V14.01,2013-10-04 16:32:00,
2013-10-04 12:37:00,81.0,65.8,30.09,WSW,241,0.0,4.0,60,0.00,,---,0.00,VWS V14.01,2013-10-04 16:37:00,
2013-10-04 12:42:00,81.1,65.9,30.08,WNW,298,0.0,5.0,60,0.00,,---,0.00,VWS V14.01,2013-10-04 16:42:00,
2013-10-04 12:47:00,81.3,65.6,30.08,NE,50,4.0,5.0,59,0.00,,---,0.00,VWS V14.01,2013-10-04 16:47:00,
2013-10-04 12:52:00,81.3,66.6,30.08,NNE,24,1.0,5.0,61,0.00,,---,0.00,VWS V14.01,2013-10-04 16:52:00,
2013-10-04 12:57:00,81.2,65.0,30.08,ENE,63,0.0,2.0,58,0.00,,---,0.00,VWS V14.01,2013-10-04 16:57:00,
2013-10-04 13:02:00,81.5,66.8,30.08,WNW,298,2.0,2.0,61,0.00,,---,0.00,VWS V14.01,2013-10-04 17:02:00,
2013-10-04 13:07:00,81.7,66.5,30.08,NW,321,1.0,2.0,60,0.00,,---,0.00,VWS V14.01,2013-10-04 17:07:00,
2013-10-04 13:12:00,81.6,65.9,30.08,SW,214,1.0,3.0,59,0.00,,---,0.00,VWS V14.01,2013-10-04 17:12:00,
2013-10-04 13:17:00,81.6,65.4,30.07,SSW,198,0.0,3.0,58,0.00,,---,0.00,VWS V14.01,2013-10-04 17:17:00,
2013-10-04 13:22:00,81.8,65.6,30.07,WNW,302,1.0,3.0,58,0.00,,---,0.00,VWS V14.01,2013-10-04 17:22:00,
2013-10-04 13:27:00,82.1,66.8,30.06,WSW,238,1.0,1.0,60,0.00,,---,0.00,VWS V14.01,2013-10-04 17:27:00,
2013-10-04 13:32:00,82.5,67.2,30.06,NW,309,1.0,2.0,60,0.00,,---,0.00,VWS V14.01,2013-10-04 17:32:00,
2013-10-04 14:02:00,82.9,65.6,30.05,ENE,63,0.0,4.0,56,0.00,,---,0.00,VWS V14.01,2013-10-04 18:02:00,
2013-10-04 14:07:00,83.1,66.3,30.05,WNW,284,0.0,4.0,57,0.00,,---,0.00,VWS V14.01,2013-10-04 18:07:00,
2013-10-04 14:12:00,83.3,66.0,30.05,WNW,284,0.0,4.0,56,0.00,,---,0.00,VWS V14.01,2013-10-04 18:12:00,
2013-10-04 14:17:00,83.4,66.6,30.05,WNW,284,0.0,4.0,57,0.00,,---,0.00,VWS V14.01,2013-10-04 18:17:00,
2013-10-04 14:22:00,83.2,66.9,30.05,NE,55,0.0,4.0,58,0.00,,---,0.00,VWS V14.01,2013-10-04 18:22:00,
2013-10-04 14:27:00,82.9,65.1,30.04,NE,36,0.0,1.0,55,0.00,,---,0.00,VWS V14.01,2013-10-04 18:27:00,
2013-10-04 14:32:00,83.1,65.8,30.04,West,274,0.0,1.0,56,0.00,,---,0.00,VWS V14.01,2013-10-04 18:32:00,
2013-10-04 14:37:00,83.4,66.6,30.04,NE,40,0.0,2.0,57,0.00,,---,0.00,VWS V14.01,2013-10-04 18:37:00,
2013-10-04 14:42:00,83.8,67.0,30.04,NW,305,1.0,2.0,57,0.00,,---,0.00,VWS V14.01,2013-10-04 18:42:00,
2013-10-04 14:47:00,84.2,67.3,30.04,NNW,337,1.0,2.0,57,0.00,,---,0.00,VWS V14.01,2013-10-04 18:47:00,
2013-10-04 14:52:00,84.4,66.5,30.04,NE,42,0.0,2.0,55,0.00,,---,0.00,VWS V14.01,2013-10-04 18:52:00,
2013-10-04 14:57:00,84.8,65.8,30.03,NNE,30,0.0,0.0,53,0.00,,---,0.00,VWS V14.01,2013-10-04 18:57:00,
2013-10-04 15:03:00,85.7,66.6,30.03,NNE,30,0.0,0.0,53,0.00,,---,0.00,VWS V14.01,2013-10-04 19:03:00,
2013-10-04 15:08:00,86.3,67.7,30.03,NE,47,0.0,2.0,54,0.00,,---,0.00,VWS V14.01,2013-10-04 19:08:00,
2013-10-04 15:13:00,86.1,66.4,30.03,SW,233,0.0,2.0,52,0.00,,---,0.00,VWS V14.01,2013-10-04 19:13:00,
2013-10-04 15:18:00,86.3,66.1,30.03,ESE,123,1.0,2.0,51,0.00,,---,0.00,VWS V14.01,2013-10-04 19:18:00,
2013-10-04 15:23:00,86.0,66.3,30.03,SW,227,0.0,2.0,52,0.00,,---,0.00,VWS V14.01,2013-10-04 19:23:00,
2013-10-04 15:28:00,86.0,65.8,30.03,SW,222,0.0,1.0,51,0.00,,---,0.00,VWS V14.01,2013-10-04 19:28:00,
2013-10-04 15:33:00,86.2,66.5,30.03,West,275,0.0,1.0,52,0.00,,---,0.00,VWS V14.01,2013-10-04 19:33:00,
2013-10-04 15:38:00,85.8,67.2,30.03,NNW,338,0.0,1.0,54,0.00,,---,0.00,VWS V14.01,2013-10-04 19:38:00,
2013-10-04 15:43:00,85.5,65.9,30.03,NNW,327,0.0,1.0,52,0.00,,---,0.00,VWS V14.01,2013-10-04 19:43:00,
2013-10-04 15:48:00,85.5,66.4,30.03,SW,234,0.0,2.0,53,0.00,,---,0.00,VWS V14.01,2013-10-04 19:48:00,
2013-10-04 15:53:00,85.7,66.6,30.03,SSE,159,0.0,2.0,53,0.00,,---,0.00,VWS V14.01,2013-10-04 19:53:00,
2013-10-04 15:58:00,85.8,65.0,30.03,WNW,288,0.0,1.0,50,0.00,,---,0.00,VWS V14.01,2013-10-04 19:58:00,
2013-10-04 16:03:00,85.6,66.5,30.03,WNW,292,0.0,2.0,53,0.00,,---,0.00,VWS V14.01,2013-10-04 20:03:00,
2013-10-04 16:08:00,85.6,66.5,30.02,WNW,294,0.0,2.0,53,0.00,,---,0.00,VWS V14.01,2013-10-04 20:08:00,
2013-10-04 16:13:00,85.4,67.4,30.03,WNW,294,1.0,2.0,55,0.00,,---,0.00,VWS V14.01,2013-10-04 20:13:00,
2013-10-04 16:18:00,84.8,65.8,30.02,WNW,293,0.0,2.0,53,0.00,,---,0.00,VWS V14.01,2013-10-04 20:18:00,
2013-10-04 16:23:00,84.8,69.4,30.03,WNW,294,0.0,2.0,60,0.00,,---,0.00,VWS V14.01,2013-10-04 20:23:00,
2013-10-04 16:28:00,84.5,67.6,30.02,WNW,293,0.0,0.0,57,0.00,,---,0.00,VWS V14.01,2013-10-04 20:28:00,
2013-10-04 16:33:00,84.4,68.5,30.02,WNW,294,0.0,0.0,59,0.00,,---,0.00,VWS V14.01,2013-10-04 20:33:00,
2013-10-04 16:38:00,84.3,69.4,30.02,WNW,294,0.0,0.0,61,0.00,,---,0.00,VWS V14.01,2013-10-04 20:38:00,
2013-10-04 16:43:00,84.0,66.6,30.02,WNW,293,0.0,1.0,56,0.00,,---,0.00,VWS V14.01,2013-10-04 20:43:00,
2013-10-04 16:48:00,83.6,67.3,30.02,WNW,293,0.0,1.0,58,0.00,,---,0.00,VWS V14.01,2013-10-04 20:48:00,
2013-10-04 16:53:00,83.6,68.3,30.02,WNW,294,0.0,1.0,60,0.00,,---,0.00,VWS V14.01,2013-10-04 20:53:00,
2013-10-04 16:58:00,84.1,69.2,30.02,WNW,293,0.0,0.0,61,0.00,,---,0.00,VWS V14.01,2013-10-04 20:58:00,
2013-10-04 17:03:00,84.2,70.2,30.02,WNW,293,0.0,0.0,63,0.00,,---,0.00,VWS V14.01,2013-10-04 21:03:00,
2013-10-04 17:08:00,83.5,68.2,30.02,WNW,293,0.0,0.0,60,0.00,,---,0.00,VWS V14.01,2013-10-04 21:08:00,
2013-10-04 17:13:00,83.0,70.5,30.02,WNW,293,0.0,0.0,66,0.00,,---,0.00,VWS V14.01,2013-10-04 21:13:00,
2013-10-04 17:18:00,82.8,70.3,30.02,WNW,294,0.0,0.0,66,0.00,,---,0.00,VWS V14.01,2013-10-04 21:18:00,
2013-10-04 17:23:00,82.6,70.5,30.02,WNW,293,0.0,0.0,67,0.00,,---,0.00,VWS V14.01,2013-10-04 21:23:00,
2013-10-04 17:28:00,82.4,70.8,30.02,WNW,294,0.0,0.0,68,0.00,,---,0.00,VWS V14.01,2013-10-04 21:28:00,
2013-10-04 17:33:00,81.9,69.4,30.02,WNW,294,0.0,0.0,66,0.00,,---,0.00,VWS V14.01,2013-10-04 21:33:00,
2013-10-04 17:38:00,81.2,69.6,30.02,WNW,294,0.0,0.0,68,0.00,,---,0.00,VWS V14.01,2013-10-04 21:38:00,
2013-10-04 17:43:00,80.6,69.1,30.02,WNW,293,0.0,0.0,68,0.00,,---,0.00,VWS V14.01,2013-10-04 21:43:00,
2013-10-04 17:48:00,80.0,69.3,30.02,WNW,294,0.0,0.0,70,0.00,,---,0.00,VWS V14.01,2013-10-04 21:48:00,
2013-10-04 17:53:00,79.5,69.3,30.02,WNW,294,0.0,0.0,71,0.00,,---,0.00,VWS V14.01,2013-10-04 21:53:00,
2013-10-04 17:58:00,78.9,69.5,30.02,WNW,294,0.0,0.0,73,0.00,,---,0.00,VWS V14.01,2013-10-04 21:58:00,
2013-10-04 18:03:00,78.2,69.2,30.02,WNW,294,0.0,0.0,74,0.00,,---,0.00,VWS V14.01,2013-10-04 22:03:00,
2013-10-04 18:08:00,77.7,69.5,30.02,WNW,294,0.0,0.0,76,0.00,,---,0.00,VWS V14.01,2013-10-04 22:08:00,
2013-10-04 18:13:00,77.2,69.4,30.03,WNW,293,0.0,0.0,77,0.00,,---,0.00,VWS V14.01,2013-10-04 22:13:00,
2013-10-04 18:18:00,76.7,68.9,30.03,WNW,294,0.0,0.0,77,0.00,,---,0.00,VWS V14.01,2013-10-04 22:18:00,
2013-10-04 18:23:00,76.3,68.9,30.02,WNW,294,0.0,0.0,78,0.00,,---,0.00,VWS V14.01,2013-10-04 22:23:00,
2013-10-04 18:28:00,75.8,68.8,30.03,WNW,294,0.0,0.0,79,0.00,,---,0.00,VWS V14.01,2013-10-04 22:28:00,
2013-10-04 18:33:00,75.3,69.1,30.03,WNW,294,0.0,0.0,81,0.00,,---,0.00,VWS V14.01,2013-10-04 22:33:00,
2013-10-04 18:38:00,74.9,69.4,30.03,WNW,294,0.0,0.0,83,0.00,,---,0.00,VWS V14.01,2013-10-04 22:38:00,
2013-10-04 18:43:00,74.5,69.3,30.03,WNW,294,0.0,0.0,84,0.00,,---,0.00,VWS V14.01,2013-10-04 22:43:00,
2013-10-04 18:48:00,74.0,69.2,30.03,WNW,293,0.0,0.0,85,0.00,,---,0.00,VWS V14.01,2013-10-04 22:48:00,
2013-10-04 18:53:00,73.5,69.1,30.03,WNW,293,0.0,0.0,86,0.00,,---,0.00,VWS V14.01,2013-10-04 22:53:00,
2013-10-04 18:58:00,73.1,68.7,30.03,WNW,294,0.0,0.0,86,0.00,,---,0.00,VWS V14.01,2013-10-04 22:58:00,
2013-10-04 19:03:00,72.7,68.6,30.03,WNW,294,0.0,0.0,87,0.00,,---,0.00,VWS V14.01,2013-10-04 23:03:00,
2013-10-04 19:08:00,72.3,68.6,30.03,WNW,293,0.0,0.0,88,0.00,,---,0.00,VWS V14.01,2013-10-04 23:08:00,
2013-10-04 19:13:00,71.9,68.2,30.03,WNW,293,0.0,0.0,88,0.00,,---,0.00,VWS V14.01,2013-10-04 23:13:00,
2013-10-04 19:18:00,71.6,68.2,30.03,WNW,294,0.0,0.0,89,0.00,,---,0.00,VWS V14.01,2013-10-04 23:18:00,
2013-10-04 19:23:00,71.3,67.9,30.03,WNW,294,0.0,0.0,89,0.00,,---,0.00,VWS V14.01,2013-10-04 23:23:00,
2013-10-04 19:28:00,71.0,67.6,30.03,WNW,293,0.0,0.0,89,0.00,,---,0.00,VWS V14.01,2013-10-04 23:28:00,
2013-10-04 19:33:00,70.8,67.7,30.03,WNW,293,0.0,0.0,90,0.00,,---,0.00,VWS V14.01,2013-10-04 23:33:00,
2013-10-04 19:38:00,70.5,67.4,30.03,WNW,294,0.0,0.0,90,0.00,,---,0.00,VWS V14.01,2013-10-04 23:38:00,
2013-10-04 19:43:00,70.2,67.1,30.04,WNW,294,0.0,0.0,90,0.00,,---,0.00,VWS V14.01,2013-10-04 23:43:00,
2013-10-04 19:48:00,69.9,67.2,30.04,WNW,293,0.0,0.0,91,0.00,,---,0.00,VWS V14.01,2013-10-04 23:48:00,
2013-10-04 19:53:00,69.7,67.0,30.04,WNW,294,0.0,0.0,91,0.00,,---,0.00,VWS V14.01,2013-10-04 23:53:00,
2013-10-04 19:58:00,69.4,66.7,30.04,WNW,293,0.0,0.0,91,0.00,,---,0.00,VWS V14.01,2013-10-04 23:58:00,
2013-10-04 20:03:00,69.2,66.8,30.04,WNW,294,0.0,0.0,92,0.00,,---,0.00,VWS V14.01,2013-10-05 00:03:00,
2013-10-04 20:08:00,68.9,66.5,30.04,WNW,294,0.0,0.0,92,0.00,,---,0.00,VWS V14.01,2013-10-05 00:08:00,
2013-10-04 20:13:00,68.7,66.3,30.04,WNW,294,0.0,0.0,92,0.00,,---,0.00,VWS V14.01,2013-10-05 00:13:00,
2013-10-04 20:18:00,68.5,66.1,30.04,WNW,294,0.0,0.0,92,0.00,,---,0.00,VWS V14.01,2013-10-05 00:18:00,
2013-10-04 20:23:00,68.3,66.2,30.04,WNW,294,0.0,0.0,93,0.00,,---,0.00,VWS V14.01,2013-10-05 00:23:00,
2013-10-04 20:28:00,68.1,66.0,30.04,WNW,294,0.0,0.0,93,0.00,,---,0.00,VWS V14.01,2013-10-05 00:28:00,
2013-10-04 20:33:00,67.9,65.8,30.05,WNW,294,0.0,0.0,93,0.00,,---,0.00,VWS V14.01,2013-10-05 00:33:00,
2013-10-04 20:38:00,67.8,65.7,30.05,WNW,293,0.0,1.0,93,0.00,,---,0.00,VWS V14.01,2013-10-05 00:38:00,
2013-10-04 20:43:00,67.6,65.8,30.05,WNW,294,0.0,1.0,94,0.00,,---,0.00,VWS V14.01,2013-10-05 00:43:00,
2013-10-04 20:48:00,67.5,65.7,30.05,WNW,294,0.0,1.0,94,0.00,,---,0.00,VWS V14.01,2013-10-05 00:48:00,
2013-10-04 20:54:00,67.5,65.7,30.05,WNW,294,0.0,1.0,94,0.00,,---,0.00,VWS V14.01,2013-10-05 00:54:00,
2013-10-04 20:59:00,67.3,65.5,30.05,WNW,294,0.0,0.0,94,0.00,,---,0.00,VWS V14.01,2013-10-05 00:59:00,
2013-10-04 21:04:00,67.3,65.5,30.05,WNW,293,0.0,0.0,94,0.00,,---,0.00,VWS V14.01,2013-10-05 01:04:00,
2013-10-04 21:09:00,67.2,65.4,30.05,WNW,294,0.0,0.0,94,0.00,,---,0.00,VWS V14.01,2013-10-05 01:09:00,
2013-10-04 21:14:00,67.1,65.3,30.06,WNW,294,0.0,0.0,94,0.00,,---,0.00,VWS V14.01,2013-10-05 01:14:00,
2013-10-04 21:19:00,66.9,65.1,30.06,WNW,294,0.0,0.0,94,0.00,,---,0.00,VWS V14.01,2013-10-05 01:19:00,
2013-10-04 21:24:00,66.8,65.0,30.06,WNW,294,0.0,0.0,94,0.00,,---,0.00,VWS V14.01,2013-10-05 01:24:00,
2013-10-04 21:29:00,66.7,64.9,30.06,WNW,293,0.0,0.0,94,0.00,,---,0.00,VWS V14.01,2013-10-05 01:29:00,
2013-10-04 21:34:00,66.6,64.8,30.06,WNW,293,0.0,0.0,94,0.00,,---,0.00,VWS V14.01,2013-10-05 01:34:00,
2013-10-04 21:39:00,66.4,64.6,30.06,WNW,294,0.0,0.0,94,0.00,,---,0.00,VWS V14.01,2013-10-05 01:39:00,
2013-10-04 21:44:00,66.3,64.5,30.07,WNW,293,0.0,0.0,94,0.00,,---,0.00,VWS V14.01,2013-10-05 01:44:00,
2013-10-04 21:49:00,66.3,64.5,30.07,WNW,293,0.0,0.0,94,0.00,,---,0.00,VWS V14.01,2013-10-05 01:49:00,
2013-10-04 21:54:00,66.2,64.7,30.07,WNW,293,0.0,0.0,95,0.00,,---,0.00,VWS V14.01,2013-10-05 01:54:00,
2013-10-04 21:59:00,66.1,64.6,30.07,WNW,294,0.0,0.0,95,0.00,,---,0.00,VWS V14.01,2013-10-05 01:59:00,
2013-10-04 22:04:00,66.0,64.5,30.07,WNW,294,0.0,0.0,95,0.00,,---,0.00,VWS V14.01,2013-10-05 02:04:00,
2013-10-04 22:09:00,65.9,64.4,30.07,WNW,293,0.0,1.0,95,0.00,,---,0.00,VWS V14.01,2013-10-05 02:09:00,
2013-10-04 22:14:00,65.8,64.3,30.07,WNW,294,0.0,1.0,95,0.00,,---,0.00,VWS V14.01,2013-10-05 02:14:00,
2013-10-04 22:19:00,65.7,64.2,30.07,WNW,293,0.0,1.0,95,0.00,,---,0.00,VWS V14.01,2013-10-05 02:19:00,
2013-10-04 22:24:00,65.7,64.2,30.07,WNW,294,0.0,1.0,95,0.00,,---,0.00,VWS V14.01,2013-10-05 02:24:00,
2013-10-04 22:29:00,65.6,64.1,30.07,WNW,294,0.0,0.0,95,0.00,,---,0.00,VWS V14.01,2013-10-05 02:29:00,
2013-10-04 22:34:00,65.5,64.0,30.07,WNW,293,0.0,0.0,95,0.00,,---,0.00,VWS V14.01,2013-10-05 02:34:00,
2013-10-04 22:39:00,65.5,64.0,30.07,WNW,294,0.0,0.0,95,0.00,,---,0.00,VWS V14.01,2013-10-05 02:39:00,
2013-10-04 22:44:00,65.4,63.9,30.07,WNW,293,0.0,0.0,95,0.00,,---,0.00,VWS V14.01,2013-10-05 02:44:00,
2013-10-04 22:49:00,65.4,63.9,30.07,WNW,294,0.0,0.0,95,0.00,,---,0.00,VWS V14.01,2013-10-05 02:49:00,
2013-10-04 22:54:00,65.4,63.9,30.07,WNW,294,0.0,0.0,95,0.00,,---,0.00,VWS V14.01,2013-10-05 02:54:00,
2013-10-04 22:59:00,65.3,63.8,30.07,WNW,294,0.0,0.0,95,0.00,,---,0.00,VWS V14.01,2013-10-05 02:59:00,
2013-10-04 23:04:00,65.2,63.7,30.07,WNW,294,0.0,0.0,95,0.00,,---,0.00,VWS V14.01,2013-10-05 03:04:00,
2013-10-04 23:09:00,65.1,63.6,30.07,WNW,293,0.0,0.0,95,0.00,,---,0.00,VWS V14.01,2013-10-05 03:09:00,
2013-10-04 23:14:00,65.0,63.5,30.07,WNW,294,0.0,0.0,95,0.00,,---,0.00,VWS V14.01,2013-10-05 03:14:00,
2013-10-04 23:19:00,65.0,63.5,30.07,WNW,293,0.0,0.0,95,0.00,,---,0.00,VWS V14.01,2013-10-05 03:19:00,
2013-10-04 23:24:00,64.9,63.4,30.07,WNW,294,0.0,0.0,95,0.00,,---,0.00,VWS V14.01,2013-10-05 03:24:00,
2013-10-04 23:29:00,65.0,63.8,30.06,WNW,293,0.0,0.0,96,0.00,,---,0.00,VWS V14.01,2013-10-05 03:29:00,
2013-10-04 23:34:00,65.0,63.8,30.06,WNW,293,0.0,0.0,96,0.00,,---,0.00,VWS V14.01,2013-10-05 03:34:00,
2013-10-04 23:39:00,65.0,63.8,30.06,WNW,294,0.0,0.0,96,0.00,,---,0.00,VWS V14.01,2013-10-05 03:39:00,
2013-10-04 23:44:00,65.0,63.8,30.06,WNW,294,0.0,0.0,96,0.00,,---,0.00,VWS V14.01,2013-10-05 03:44:00,
2013-10-04 23:49:00,65.0,63.8,30.06,WNW,294,0.0,0.0,96,0.00,,---,0.00,VWS V14.01,2013-10-05 03:49:00,
2013-10-04 23:54:00,65.0,63.8,30.06,WNW,294,0.0,0.0,96,0.00,,---,0.00,VWS V14.01,2013-10-05 03:54:00,
2013-10-04 23:59:00,65.0,63.8,30.06,WNW,293,0.0,0.0,96,0.00,,---,0.00,VWS V14.01,2013-10-05 03:59:00,